Rbgn^[z[y[W
メイン
   新天体発見情報
     Comet P/2015 F1 = P/2021 A11 (PANSTARRS)
投稿するにはまず登録を

フラット表示 前のトピック | 次のトピック
投稿者 スレッド
佐藤裕久
投稿日時: 2021-3-13 12:20
モデレータ
登録日: 2005-6-12
居住地: 日本
投稿: 2203
オンライン
Comet P/2015 F1 = P/2021 A11 (PANSTARRS)

Erwin Schwabは、2021年1月13日、2月13日、14日UT、スペイン Calar Alto (Z84)
にある、0.8-m f/3 Schmidt望遠鏡で得た画像から22.0等〜20.4等のP/2015 F1
(CBET 4082を参照)を検出した。
2月10日には、David AbreuはスペインのTenerifeにあるESA(欧州宇宙機関)の光学地上
局 (J04)の1.0-m f/4.4 反射望遠鏡で20.8等〜20.5等と観測した。

検出位置は次のとおり、

     2021 UT             R.A. (2000) Decl.       Mag.   Observer
     Jan. 13.06463   11 43 36.41   + 5 11 08.0   21.3   Schwab
          13.06884   11 43 36.44   + 5 11 06.1   22.0     "
          13.07382   11 43 36.48   + 5 11 05.3   21.8     "
     Feb. 10.21761   11 41 27.15   + 5 41 58.7   20.6   Abreu
          10.22512   11 41 26.96   + 5 41 59.9   20.8     "
          10.23264   11 41 26.80   + 5 42 01.6   20.5     "
          13.00459   11 40 18.57   + 5 50 19.2   21.0   Schwab
          13.01378   11 40 18.33   + 5 50 21.3   20.9     "
          13.02297   11 40 18.09   + 5 50 22.8   20.7     "
          13.03217   11 40 17.80   + 5 50 24.5   20.4     "
          14.19207   11 39 46.18   + 5 54 07.2   20.7     "
          14.20126   11 39 45.93   + 5 54 08.6   20.9     "
          14.21046   11 39 45.64   + 5 54 10.4   21.0     "
          14.21965   11 39 45.34   + 5 54 12.3   21.0     "

NK 3667およびICQ's 2019, 2020 & 2021 Comet Handbookの中野主一氏の予報に対し、
Delta(T)は、-0.20dayであった。
MPC 109142のG. V. Williamsの予報に対するDelta(T)は、-0.19 dayであった。
彗星年表2021の佐藤裕久の予報に対する修正値は、Delta(T) = -0.26 dayであった。

MPCの連結軌道要素と位置推算表は次のとおり、

Orbital elements:
    P/2015 F1 (PANSTARRS)                                                       
Epoch 2015 Feb. 27.0 TT = JDT 2457080.5                                         
T 2015 Mar. 14.97561 TT                                 Rudenko                 
q   2.5416032            (2000.0)            P               Q                  
n   0.14919436     Peri.  187.14291     -0.67472778     +0.73738421             
a   3.5207440      Node    40.43157     -0.67471982     -0.59882015             
e   0.2781062      Incl.    2.80456     -0.29915813     -0.31253632             
P   6.61                                                                        
From 219 observations 2015 Jan. 24-2021 Feb. 14, mean residual 0".6.            
                                                                                
    P/2015 F1 (PANSTARRS)                                                       
Epoch 2021 Nov. 2.0 TT = JDT 2459520.5                                          
T 2021 Oct. 27.47634 TT                                 Rudenko                 
q   2.5432770            (2000.0)            P               Q                  
n   0.14918165     Peri.  187.50464     -0.67060535     +0.74113725             
a   3.5209439      Node    40.38937     -0.67803559     -0.59506170             
e   0.2776718      Incl.    2.80292     -0.30092557     -0.31083300             
P   6.61                                                                        
From 219 observations 2015 Jan. 24-2021 Feb. 14, mean residual 0".6.            
                                                                                
    P/2015 F1 (PANSTARRS)                                                       
Epoch 2020 Dec. 17.0 TT = JDT 2459200.5                                         
T 2021 Oct. 27.33280 TT                                 Rudenko                 
q   2.5433619            (2000.0)            P               Q                  
n   0.14906241     Peri.  187.46670     -0.67103641     +0.74074701             
a   3.5228214      Node    40.39398     -0.67769115     -0.59545829             
e   0.2780327      Incl.    2.80261     -0.30074047     -0.31100369             
P   6.61                                                                        
From 219 observations 2015 Jan. 24-2021 Feb. 14, mean residual 0".6.            
                                                                                
Ephemeris:
Date    TT    R. A. (2000) Decl.     Delta      r    Elong.  Phase   m1
2021 01 26    11 44 46.3 +05 12 36   2.1979  2.9435   131.4    14.5  18.9
...
2021 02 10    11 41 32.3 +05 41 23   2.0260  2.9071   147.5    10.5  18.7
...
2021 02 18    11 37 52.4 +06 07 12   1.9545  2.8880   156.5     7.8  18.6
...
2021 02 24    11 34 22.8 +06 30 03   1.9115  2.8739   163.4     5.6  18.5
2021 02 25    11 33 44.7 +06 34 05   1.9053  2.8715   164.6     5.3  18.5
2021 02 26    11 33 05.8 +06 38 09   1.8994  2.8692   165.7     4.9  18.5
...
2021 03 04    11 28 58.0 +07 03 17   1.8694  2.8553   172.4     2.6  18.4
...
2021 03 12    11 23 02.1 +07 37 14   1.8453  2.8371   175.6     1.5  18.4
...
2021 03 27    11 12 07.2 +08 32 40   1.8487  2.8038   159.2     7.3  18.3

(CBET 4933、MPEC 2021-D104、oaa-comet 1618)

フラット表示 前のトピック | 次のトピック

題名 投稿者 日時
 » Comet P/2015 F1 = P/2021 A11 (PANSTARRS) 佐藤裕久 2021-3-13 12:20

投稿するにはまず登録を
 
© 1999 Tsutomu Seki.